weather.gov     
National Weather Service

Regional Weather Roundup
NWS Homepage
This page is being discontinued on March 12, 2014.
The same data is available at this site. Please update your bookmarks.
Thank you, and we apologize for the inconvenience.
Please send an email to SR-SRH.Webmaster@noaa.gov with any concerns.


Current Version
Previous Version:    01  02  03  04  05  06  07  08  09  10  11  12  13  14  15  16  17  18  19  20  21  22  23  24  25  26  27  28  29  30  
   31  32  33  34  35  36  37  38  39  40  41  42  43  44  45  46  47  48  49  50  51  52  53  54  55  56  57  58  59  60  
[Printable]
530
ASUS43 KDTX 011001
RWRMI
MICHIGAN HOURLY REGIONAL WEATHER ROUNDUP
NATIONAL WEATHER SERVICE DETROIT/PONTIAC MI
600 AM EDT FRI AUG 01 2014

NOTE: "FAIR" INDICATES FEW OR NO CLOUDS BELOW 12,000 FEET WITH NO
SIGNIFICANT WEATHER AND/OR OBSTRUCTION TO VISIBILITY.

MIZ047>049-052>055-059>063-066>070-074>076-081>083-011100-
SOUTHEAST LOWER MICHIGAN

CITY           SKY/WX    TMP DP  RH WIND       PRES   REMARKS
ADRIAN         CLOUDY    62  59  90 CALM      30.08S
ALMA           CLEAR     59  57  95 CALM      30.04S FOG
ANN ARBOR      FOG       54  52  93 CALM      30.07S VSB 1/4
BAD AXE        MOCLDY    55  55 100 CALM      30.04F FOG
CARO           LGT RAIN  60  60 100 CALM      30.04R
DETROIT CITY   CLEAR     66  58  75 SW5       30.06R
DETROIT        MOCLDY    61  58  90 CALM      30.07R
FLINT          CLEAR     63  57  81 S6        30.05S
GROSSE ILE     CLEAR     64  61  88 S5        30.06S
HILLSDALE      CLOUDY    65  63  94 CALM      30.09R
HOWELL         CLEAR     59  57  94 CALM      30.06S

CITY           SKY/WX    TMP DP  RH WIND       PRES   REMARKS
JACKSON        PTCLDY    60  58  92 CALM      30.07S
LAMBERTVILLE   CLOUDY    61  57  88 CALM      30.08S FOG
LANSING        CLEAR     62  58  86 SW7       30.06R
LAPEER         FAIR      56  55  96 CALM      30.05S FOG
MASON          CLEAR     61  58  88 CALM      30.06S
MONROE         CLEAR     61  57  88 CALM      30.06S FOG
MT. CLEMENS    CLEAR     58  57  97 VRB2      30.05R
PONTIAC        PTCLDY    62  57  83 SW3       30.06R
PORT HOPE        N/A     61  58  90 SW6       30.02R
PORT HURON     MOCLDY    55  55 100 CALM      30.06S FOG
TRI CITIES     PTCLDY    63  58  83 SW6       30.04R
TROY           CLEAR     62  59  89 CALM      30.07S
SAGINAW HB     CLEAR     61  61 100 S3        30.03S
$$
MIZ043>046-050>051-056>058-064>065-071>073-077>080-011100-
SOUTHWEST LOWER MICHIGAN

CITY           SKY/WX    TMP DP  RH WIND       PRES   REMARKS
BATTLE CREEK   CLEAR     61  57  87 S5        30.07R
BENTON HARBOR  CLEAR     60  59  96 CALM      30.06R FOG
BIG RAPIDS     CLEAR     56  56 100 CALM      30.04S FOG
COLDWATER      CLOUDY    64  62  93 CALM      30.08S
FREMONT        FOG       56  56 100 CALM      30.03S VSB 1/4
HOLLAND        CLEAR     62  59  90 CALM      30.05R
GRAND RAPIDS   PTCLDY    61  59  93 SW3       30.05R
IONIA          FAIR      61  58  91 CALM      30.04S
KALAMAZOO      CLEAR     60  57  89 SW6       30.07R
LUDINGTON      CLEAR     55  53  94 CALM      30.02S
MARSHALL       CLEAR     59  59  97 CALM      30.06S
MOUNT PLEASANT   N/A     58  57  97 CALM      30.03S FOG
MUSKEGON       PTCLDY    62  57  83 CALM      30.04R
SOUTH HAVEN    CLEAR     59  59 100 CALM      30.06R FOG
$$
MIZ016>042-011100-
NORTHERN LOWER MICHIGAN

CITY           SKY/WX    TMP DP  RH WIND       PRES   REMARKS
ALPENA         PTCLDY    56  53  90 CALM      30.01S
BEAVER ISLAND  FOG       49  49 100 CALM      30.01R VSB 1/4
BELLAIRE       CLEAR     51  49  95 CALM      30.01S FOG
CADILLAC       FOG       50  49  97 CALM      30.03S VSB<1/4
CHARLEVOIX     CLEAR     55  55 100 CALM      30.04S FOG
FRANKFORT      CLEAR     55  52  89 CALM      30.00F FOG
GAYLORD        PTCLDY    53  51  93 CALM      30.03R
GRAYLING       CLEAR     49  49 100 CALM      30.04S FOG
HARBOR SPRINGS FOG       56  55  96 CALM      30.01S VSB 1/4
HOUGHTON LAKE  CLEAR     49  48  97 CALM      30.04R
MANISTEE       CLEAR     52  48  87 CALM      30.02S
OSCODA         CLEAR     50  49  96 SW5       30.01S
PELLSTON       FOG       51  51 100 CALM      30.01S VSB 1/4
ROGERS CITY    PTCLDY    54  54  99 CALM      30.02S
TRAVERSE CITY  PTCLDY    58  55  90 CALM      30.00R
$$
MIZ007>008-015-011100-
EASTERN UPPER MICHIGAN

CITY           SKY/WX    TMP DP  RH WIND       PRES   REMARKS
KINROSS        CLOUDY    54  54 100 CALM      30.00S
MACKINAC ISLAN FOG       57  57 100 CALM      30.01S VSB 1/4
NEWBERRY       CLOUDY    50  49  97 SW7       30.00S
S. S. MARIE    MOCLDY    53  51  93 CALM      30.00R
$$
MIZ004>006-011>014-085-011100-
CENTRAL UPPER MICHIGAN

CITY           SKY/WX    TMP DP  RH WIND       PRES   REMARKS
MANISTIQUE     CLEAR     47  47  99 CALM      30.01S
ESCANABA       CLEAR     46  43  87 CALM      30.01R
MENOMINEE      CLEAR     55  54  94 N3        29.99S
SAWYER-GWINN   CLEAR     46  43  92 CALM      30.02S
$$
MIZ001>003-009>011-084-011100-
WESTERN UPPER MICHIGAN

CITY           SKY/WX    TMP DP  RH WIND       PRES   REMARKS
IRON MOUNTAIN  CLEAR     51  49  92 CALM      30.01R FOG
HOUGHTON       CLEAR     48  45  89 CALM      30.01S
COPPER HARBOR    N/A     54  49  83 W5        30.00S
$$

ABBREVIATIONS USED IN REMARKS
   TC - TEMPERATURE IN CELSIUS
  WCI - WIND CHILL INDEX
   HX - HEAT INDEX
  VSB - VISIBILITY





U.S. Dept. of Commerce
NOAA National Weather Service
1325 East West Highway
Silver Spring, MD 20910
E-mail: w-nws.webmaster@noaa.gov
Page last modified: May 16, 2007
NATIONAL WEATHER SERVICE: for Safety, for Work, for Fun - FOR LIFE